Спринг-Валли

США     32°52′35″N   116°50′52″W
темп.,
°C
ветер,
м/с
пор.,
м/с
влажн.,
%
обл.,
%
осадки,
мм/ч
давл.,
гПа
погр.,
м
16 октября, сб
сб1623:00+15всв54170 0.0 101829
02:00+15всв44160 0.0 101719
05:00+15всв44170 0.0 101617
08:00+18всв43180 0.0 101747
11:00+25в34100 0.0 10161119
14:00+27всв4490 0.0 10131817
17:00+26в12110 0.0 10131143
20:00+17в22210 0.0 101511
17 октября, вс
вс1723:00+15вюв11233 0.0 101611
02:00+13ююв0128100 0.0 101511
05:00+13в2227100 0.0 101411
08:00+16юв112960 0.0 101511
11:00+21зюз33210 0.0 1016813
14:00+22зюз66220 0.0 10141345
17:00+19зюз55290 0.0 1014967
20:00+11зюз11570 0.0 101510
18 октября, пн
пн1823:00+10зюз11690 0.0 101610
02:00+9ююв11841 0.0 101610
05:00+8ю11898 0.0 101510
08:00+11юз238596 0.0 1016389
11:00+13юз4571100 0.1 1015973
14:00+14зюз4562100 0.0 10141051
17:00+14зюз456593 0.0 10141012
20:00+11з237972 0.1 1015545
19 октября, вт
вт1923:00+9юз118468 0.1 1016386
02:00+7ююв119038 0.0 101615
05:00+6в22914 0.0 101616
08:00+9в11664 0.0 101759
11:00+16з22335 0.0 1016707
14:00+19зюз42300 0.0 1014911
17:00+16зюз324369 0.0 1015542
20:00+10ююз0177100 0.0 101610
20 октября, ср
ср2023:00+9в117952 0.0 101710
02:00+10в0162100 0.0 101610
05:00+9всв1169100 0.0 101710
08:00+14в114262 0.0 101812
11:00+21зюз22250 0.0 1017817
14:00+22з43295 0.0 1016919
17:00+20з224299 0.0 1016437
20:00+13зсз006593 0.0 101811